SCP
0 0 -0 -0 -0 0 0 0 0 0 0 0 0 0 0 0 0 0 0 0 0 0 -0 -0 -0 -0 -0 -0 -0 -0 -0 -0 -0 0 0 0 0 0 -0 -0 -0 -0 -0 -0 -0 -0 -0 -0 0
0 -0 -0 -0 0 0 0 0 0 0 -0 0 0 -0 0 0 0 0 0 0 0 0 -0 -0 -0 -0 -0 -0 -0 -0 -0 -0 -0 -0 -0 0 0 -0 0 -0 -0 -0 -0 -0 -0 -0 0 0 0
-0 -0 -0 0 0 0 0 0 0 -0 -0 0 0 0 0 0 0 -0 0 -0 0 -0 -0 0 0 -0 -0 -0 -0 -0 -0 -0 -0 -0 -0 -0 -0 -0 -0 -0 0 0 0 0 -0 -0 -0 0 0
-0 -0 -0 0 0 0 0 0 0 -0 -0 -0 0 0 -0 0 -0 0 0 -0 -0 -0 -0 -0 -0 -0 -0 -0 -0 -0 -0 -0 -0 -0 -0 -0 -0 -0 -0 -0 0 0 0 0 0 0 -0 0 0
-0 0 0 0 0 0 0 0 0 0 0 -0 -0 0 0 0 -0 -0 0 0 0 0 0 -0 -0 -0 -0 -0 -0 -0 -0 -0 -0 -0 -0 -0 -0 -0 0 0 0 0 0 0 0 0 0 0 0
0 0 0 0 0 0 0 0 0 0 0 0 0 0 0 0 0 0 0 0 0 0 0 0 0 0 0 -0 -0 -0 -0 -0 -0 0 -0 -0 -0 -0 0 0 0 0 0 0 0 0 0 0 0
0 0 0 0 0 0 0 0 0 0 0 0 0 0 0 0 0 0 0 0 0 0 0 0 0 0 0 0 0 0 0 0 0 0 -0 0 0 0 0 0 0 0 0 0 0 0 0 0 0
0 0 0 0 0 0 0 0 0 0 0 0 0 0 0 0 0 0 0 0 0 0 0 0 0 0 0 0 0 0 0 0 0 0 0 0 0 0 0 0 0 0 0 0 0 0 0 0 0
0 0 0 0 0 0 0 0 0 0 0 0 0 0 0 0 0 0 0 0 0 0 0 0 0 0 0 0 0 0 0 0 0 0 0 0 0 0 0 0 0 0 0 0 0 0 0 0 0
0 0 0 0 0 0 0 0 0 0 0 0 0 0 0 0 0 0 0 0 0 0 0 0 0 0 0 0 0 0 0 0 0 0 0 0 0 0 0 0 0 0 0 0 0 0 0 0 0
0 0 0 0 0 0 0 0 0 0 0 0 0 0 0 0 0 0 0 0 0 0 0 0 0 0 0 0 0 0 0 0 0 0 0 0 0 0 0 0 0 0 0 0 0 0 0 0 0
0 0 0 0 0 0 0 0 0 0 0 0 0 0 0 0 0 0 0 0 0 0 0 0 0 0 0 0 0 0 0 0 0 0 0 0 0 0 0 0 0 0 0 0 0 0 0 0 0
0 0 0 0 0 0 0 0 0 0 0 0 0 0 0 0 0 0 0 0 0 0 0 0 0 0 0 0 0 0 0 0 0 0 0 0 0 0 0 0 0 0 0 0 0 0 0 0 0
0 0 0 0 0 0 0 0 0 0 0 0 0 0 0 0 0 0 0 0 0 0 0 0 0 0 0 0 0 0 0 0 0 0 0 0 0 0 0 0 0 0 0 0 0 0 0 0 0
0 0 0 0 0 0 0 0 0 0 0 0 0 0 0 0 0 0 0 0 0 0 0 0 0 0 0 0 0 0 0 0 0 0 0 0 0 0 0 0 0 0 0 0 0 0 0 0 0
0 0 0 0 0 0 0 0 0 0 0 0 0 0 0 0 0 0 0 0 0 0 0 0 0 0 0 0 0 0 0 0 0 0 0 0 0 0 0 0 0 0 0 0 0 0 0 0 0
0 0 0 0 0 0 0 0 0 0 0 0 0 0 0 0 0 0 0 0 0 0 0 0 0 0 0 0 0 0 0 0 0 0 0 0 0 0 0 0 0 0 0 0 0 0 0 0 0
0 0 0 0 0 0 0 0 0 0 0 0 0 0 0 0 0 0 0 0 0 0 0 0 0 0 0 0 0 0 0 0 0 0 0 0 0 0 0 0 0 0 0 0 0 0 0 0 0
0 0 0 0 0 0 0 0 0 0 0 0 0 0 0 0 0 0 0 0 0 0 0 0 0 0 0 0 0 0 0 0 0 0 0 0 0 0 0 0 0 0 0 0 0 0 0 0 0
0 0 0 0 0 0 0 0 0 0 0 0 0 0 0 0 0 0 0 0 0 0 0 0 0 0 0 0 0 0 0 0 0 0 0 0 0 0 0 0 0 0 0 0 0 0 0 0 0
0 0 0 0 0 0 0 0 0 0 0 0 0 0 0 0 0 0 0 0 0 0 0 0 0 0 0 0 0 0 0 0 0 0 0 0 0 0 0 0 0 0 0 0 0 0 0 0 0
0 0 0 0 0 0 0 0 0 0 0 0 0 0 0 0 0 0 0 0 0 0 0 0 0 0 0 0 0 0 0 0 0 0 0 0 0 0 0 0 0 0 0 0 0 0 0 0 0
0 0 0 0 0 0 0 0 0 0 0 0 0 0 0 0 0 0 0 0 0 0 0 0 0 0 0 0 0 0 0 0 0 0 0 0 0 0 0 0 0 0 0 0 0 0 0 0 0
0 0 0 0 0 0 0 0 0 0 0 0 0 0 0 0 0 0 0 0 0 0 0 0 0 0 0 0 0 0 0 0 0 0 0 0 0 0 0 0 0 0 0 0 0 0 0 0 0
0 0 0 0 0 0 0 0 0 0 0 0 0 0 0 0 0 0 0 0 0 0 0 0 0 0 0 0 0 0 0 0 0 0 0 0 0 0 0 0 0 0 0 0 0 0 0 0 0
0 0 0 0 0 0 0 0 0 0 0 0 0 0 0 0 0 0 0 0 0 0 0 0 0 0 0 0 0 0 0 0 0 0 0 0 0 0 0 0 0 0 0 0 0 0 0 0 0
0 0 0 0 0 0 0 0 0 0 0 0 0 0 0 0 0 0 0 0 0 0 0 0 0 0 0 0 0 0 0 0 0 0 0 0 0 0 0 0 0 0 0 0 0 0 0 0 0
0 0 0 0 0 0 0 0 0 0 0 0 0 0 0 0 0 0 0 0 0 0 0 0 0 0 0 0 0 0 0 0 0 0 0 0 0 0 0 0 0 0 0 0 0 0 0 0 0
0 0 0 0 0 0 0 0 0 0 0 0 0 0 0 0 0 0 0 0 0 0 0 0 0 0 0 0 0 0 0 0 0 0 0 0 0 0 0 0 0 0 0 0 0 0 0 0 0
0 0 0 0 0 0 0 0 0 0 0 0 0 0 0 0 0 0 0 0 0 0 0 0 0 0 0 0 0 0 0 0 0 0 0 0 0 0 0 0 0 0 0 0 0 0 0 0 0
Wind_Speed_500mb
5 2 2 4 7 8 2 1 3 2 1 1 4 4 6 5 6 4 9 4 5 13 33 35 30 31 32 30 27 26 23 17 12 7 3 3 4 4 0 6 8 12 14 10 9 9 9 8 7
5 4 5 6 9 7 5 5 4 3 2 6 6 4 3 0 4 4 7 3 7 12 27 33 29 26 28 27 25 25 23 18 14 9 6 4 4 6 7 9 11 11 13 12 10 9 9 7 5
5 6 3 8 6 7 6 5 4 3 2 4 3 3 3 4 8 6 9 6 8 8 18 28 29 27 27 26 24 21 19 17 13 9 7 8 10 13 10 9 10 13 13 13 11 10 9 9 7
6 3 11 8 6 3 1 4 5 5 3 4 4 5 3 4 4 7 11 11 9 7 11 21 28 28 27 24 24 22 21 18 14 11 10 12 3 4 8 12 16 19 17 13 11 11 11 11 9
6 6 8 7 2 3 6 6 2 1 2 1 3 2 5 10 6 7 10 11 10 4 7 14 24 27 26 26 25 23 23 21 17 14 12 11 12 14 10 12 16 21 24 14 8 9 10 11 9
6 6 8 5 5 5 7 6 1 2 2 3 4 3 8 10 11 7 3 3 6 3 3 6 16 25 27 25 27 25 24 22 19 17 14 13 13 9 7 11 17 21 12 5 5 9 11 10 8
10 7 8 8 4 4 5 4 6 2 5 6 3 4 9 12 9 4 6 4 2 2 3 5 9 18 28 27 28 26 24 24 22 19 18 19 22 17 9 14 14 15 16 9 8 11 11 10 6
6 10 7 4 6 5 3 4 6 5 1 4 5 4 2 21 11 3 9 8 5 4 4 6 10 15 23 29 31 30 28 25 25 22 22 25 23 24 20 21 17 12 13 10 9 10 10 9 5
5 8 3 7 12 3 4 7 1 7 4 4 6 5 11 22 18 10 12 12 11 13 13 14 16 19 21 26 30 32 31 30 29 28 29 31 29 27 25 27 23 16 10 13 14 13 11 10 8
8 7 13 8 8 6 2 2 11 2 10 3 2 3 13 15 14 12 13 14 15 18 22 24 25 26 25 24 27 31 32 33 33 31 33 34 30 27 23 19 21 20 14 15 15 14 12 12 12
5 8 8 6 12 5 5 4 5 4 4 6 12 15 8 13 8 3 2 6 8 11 20 30 32 32 30 27 23 25 29 29 30 31 31 31 31 25 24 25 24 25 25 24 22 18 16 14 14
2 7 8 4 6 4 4 2 5 11 3 9 10 3 5 8 10 10 8 7 8 13 15 17 24 33 34 31 25 21 20 22 26 26 27 28 32 28 25 25 27 28 27 29 28 28 23 19 18
4 4 7 10 15 19 14 12 8 8 5 11 10 6 6 12 13 12 11 13 17 19 19 22 23 29 34 34 27 19 14 11 16 21 27 30 30 30 31 29 27 29 27 27 26 29 34 25 23
2 7 17 16 19 15 8 3 5 12 13 11 7 10 9 7 8 10 10 14 19 21 21 17 17 23 31 32 26 18 13 6 3 9 21 30 31 29 30 31 33 27 29 28 28 33 34 31 26
1 7 12 8 9 10 11 5 8 12 10 10 10 10 11 14 14 15 17 19 18 19 19 15 10 4 22 28 24 21 17 14 10 7 8 12 15 18 22 22 23 25 28 29 31 30 34 34 39
4 8 6 3 3 3 7 6 6 3 7 8 8 8 10 11 14 14 14 16 18 19 20 21 16 9 20 30 32 25 17 12 7 8 10 14 19 22 24 24 25 27 24 14 18 29 33 30 34
10 6 8 15 3 2 3 9 9 12 12 16 12 12 11 11 11 13 15 18 22 25 26 26 25 24 23 26 27 22 16 11 7 4 2 11 13 13 5 8 6 13 17 22 27 26 28 28 34
13 9 8 10 2 5 4 15 10 17 16 19 16 17 17 18 23 24 23 24 25 28 30 31 35 37 38 33 28 21 12 8 6 2 7 10 10 11 10 10 11 14 18 17 18 20 23 32 38
11 8 9 5 5 2 12 12 4 10 16 18 16 19 25 32 34 35 37 36 34 32 34 35 33 36 31 29 25 20 11 7 8 2 4 9 9 15 19 21 23 24 24 24 25 25 28 32 38
8 8 11 8 5 9 6 16 2 5 5 10 21 24 30 38 41 46 49 52 54 54 54 49 45 38 33 28 28 24 20 18 14 11 2 4 9 13 18 23 26 27 25 28 32 36 35 35 37
10 13 10 14 0 4 3 12 7 4 11 16 20 25 31 39 45 49 53 56 57 58 58 55 53 50 47 43 40 35 31 31 23 21 17 15 13 10 8 7 8 10 13 17 20 23 25 26 26
12 16 13 10 8 8 2 9 8 9 9 13 23 27 31 35 41 46 51 53 53 52 45 42 41 41 40 36 33 31 29 27 27 25 23 21 19 18 17 17 15 14 13 11 13 13 14 17 22
13 13 14 7 7 2 4 1 11 7 14 15 32 37 36 35 38 42 46 47 45 41 36 34 32 33 33 28 25 21 24 28 27 25 19 19 20 21 22 21 21 22 23 22 21 21 22 23 22
19 14 12 9 6 3 13 12 7 11 10 15 29 44 43 41 39 40 41 41 38 34 30 26 24 27 26 22 22 20 22 25 21 20 16 17 17 17 17 19 19 20 20 22 25 26 27 28 26
2 13 3 3 1 11 1 5 14 9 11 24 44 61 53 45 43 39 35 34 31 28 24 21 18 21 21 18 19 20 19 18 15 14 14 13 14 15 17 18 19 21 24 25 26 27 28 30 32
14 14 10 15 9 6 1 12 11 6 6 10 53 66 58 53 49 42 35 30 26 23 21 18 16 16 17 15 16 16 15 12 11 11 11 14 16 19 20 21 23 23 23 24 27 30 33 36 38
12 10 6 14 5 3 8 9 5 5 3 11 43 64 66 61 56 46 38 32 26 22 18 14 12 11 12 12 12 10 7 6 5 7 11 15 17 18 20 23 25 26 27 30 33 37 40 42 46
9 14 7 4 5 10 6 7 10 11 16 12 26 59 72 65 60 51 41 33 28 23 20 17 15 13 13 11 8 6 3 4 8 12 14 18 21 23 24 26 28 31 36 40 44 47 50 53 55
6 7 7 9 8 10 3 9 10 13 20 29 40 63 73 68 65 57 46 35 29 26 23 21 21 20 19 14 11 6 3 4 7 12 17 21 24 26 28 31 34 38 43 47 51 56 60 64 66
4 15 15 11 11 6 5 11 3 10 19 39 49 70 71 69 66 59 48 40 34 31 30 29 28 26 23 21 15 10 7 9 13 17 22 27 30 33 35 37 41 45 49 54 60 64 68 72 74
Wind_Direction_500mb
349 21 87 105 65 66 33 196 270 254 298 109 122 128 144 141 155 163 4 99 49 165 185 187 182 176 174 177 181 182 185 194 201 205 192 152 145 156 320 313 334 354 356 19 22 31 37 39 47
51 72 85 97 83 71 282 265 215 226 97 115 122 95 97 178 47 45 37 67 56 145 179 189 192 181 180 185 186 190 198 205 208 217 222 204 198 222 271 296 319 344 357 358 355 360 1 4 10
57 43 59 87 103 148 178 239 258 312 100 119 121 89 94 34 44 60 29 68 55 126 167 190 195 194 190 193 197 204 209 212 217 228 230 250 254 257 274 294 317 331 337 340 336 331 333 331 329
21 58 63 77 114 198 136 297 244 342 70 55 87 78 53 42 48 50 56 69 65 117 157 188 197 202 201 197 201 202 209 218 229 246 248 264 259 231 277 309 323 324 322 323 315 316 325 323 317
28 61 59 79 291 247 255 283 320 56 52 77 59 0 66 42 64 70 59 57 45 86 161 188 201 207 211 199 199 209 215 218 224 231 243 240 255 245 271 299 314 321 314 311 299 313 320 318 319
72 70 69 164 242 283 270 331 210 72 76 117 98 85 76 51 71 59 39 48 38 85 171 198 206 213 219 213 208 209 220 227 231 236 235 234 252 257 249 303 321 327 341 351 325 324 326 328 333
103 80 169 167 209 279 203 2 129 107 335 57 62 76 130 47 18 292 281 238 196 124 146 202 222 224 225 223 218 221 224 233 237 240 234 239 266 301 317 317 316 334 354 352 344 333 335 333 331
88 92 119 223 192 213 23 99 112 66 102 19 24 52 336 330 341 243 223 238 237 198 200 229 232 229 228 230 224 226 229 233 242 241 231 232 258 283 294 303 298 309 343 355 350 342 338 325 308
83 63 164 201 165 182 37 44 316 325 293 34 57 48 307 290 278 248 216 214 226 223 222 223 235 241 239 232 234 233 230 234 239 239 236 243 257 268 281 288 279 275 311 337 347 339 331 308 279
82 108 213 198 196 153 101 100 311 357 336 35 9 299 312 279 269 242 221 234 240 232 235 241 241 235 239 242 237 232 231 238 241 240 239 247 255 263 273 280 290 282 307 315 323 336 321 304 286
133 177 198 236 217 221 163 284 197 326 78 124 312 320 45 59 72 88 273 284 277 259 247 247 245 237 230 237 241 241 234 242 242 246 247 253 258 265 265 271 284 298 307 312 310 313 318 304 285
125 223 205 254 210 204 228 209 264 234 146 288 274 150 56 48 45 40 18 346 326 309 293 272 248 235 229 224 231 236 240 233 237 247 249 255 262 266 274 281 286 289 300 303 313 314 299 302 295
163 275 229 261 266 276 264 249 249 321 226 141 124 126 41 18 13 7 358 341 329 320 303 287 264 238 224 219 217 225 231 240 238 244 241 246 258 266 280 279 286 288 301 305 308 314 323 299 297
215 281 286 285 267 260 221 134 164 92 130 117 94 55 37 14 9 358 341 339 332 330 325 312 283 250 223 211 204 210 213 226 261 243 241 241 244 252 269 280 285 285 290 303 299 304 315 312 301
131 319 319 264 271 223 168 110 89 128 145 87 54 41 26 14 7 1 358 356 3 2 4 3 352 250 201 192 180 191 199 207 188 191 207 215 231 244 256 269 275 280 275 285 289 298 309 303 309
59 52 356 282 169 316 171 222 176 68 221 91 67 46 25 13 6 5 21 36 37 36 36 41 48 92 163 175 175 179 187 191 198 246 246 249 244 248 250 246 253 258 258 277 286 295 294 290 299
6 232 210 317 34 129 148 250 95 73 123 94 77 65 59 59 53 60 66 61 56 52 56 62 76 93 120 142 148 155 162 174 174 199 258 281 289 280 283 228 251 273 296 282 282 278 282 298 293
194 210 234 236 266 131 196 264 114 66 83 86 91 95 92 83 75 77 81 82 80 77 78 79 86 95 107 116 124 135 163 161 116 309 323 322 312 325 341 343 342 309 306 307 309 302 296 296 294
137 171 214 232 247 186 234 252 31 71 83 109 116 116 107 97 93 96 96 95 96 97 94 92 92 93 101 111 120 129 146 139 239 290 323 305 330 312 319 317 320 315 308 308 310 314 318 313 312
152 163 233 274 226 177 259 255 116 76 139 161 150 135 119 111 107 103 101 101 99 97 97 97 95 96 96 99 103 107 117 109 101 92 69 326 307 307 306 305 300 300 306 301 300 297 301 306 316
202 192 200 215 47 211 303 274 205 67 124 148 154 144 134 128 121 114 108 101 98 93 90 88 87 87 86 86 86 86 89 89 90 86 81 77 66 57 41 21 355 333 313 307 311 315 313 312 317
207 201 177 164 123 232 99 274 252 177 167 187 175 164 152 143 132 123 117 112 105 97 91 89 87 86 86 87 90 95 98 96 95 93 88 89 85 79 71 64 61 54 42 23 13 4 355 347 340
228 131 150 132 142 79 241 259 260 133 217 197 198 180 170 157 146 135 124 115 109 105 103 97 95 98 104 110 104 98 98 95 97 90 80 67 58 49 45 42 38 32 31 36 36 30 23 14 6
151 84 56 58 88 262 220 190 251 200 208 181 195 187 178 170 160 147 134 127 121 110 105 105 106 106 107 105 101 90 87 91 93 84 66 59 48 41 33 27 24 23 18 14 13 13 8 9 8
173 112 94 8 304 232 326 165 248 192 178 181 183 189 184 178 171 160 148 140 129 122 120 118 115 113 112 106 101 100 97 98 84 72 57 54 40 30 24 19 13 11 11 6 3 359 358 356 351
189 170 164 195 201 226 41 223 255 132 175 201 191 185 182 183 179 171 163 157 145 139 138 136 133 125 120 121 116 109 100 83 59 49 34 21 15 12 10 3 0 357 353 350 347 346 345 342 338
187 198 153 103 53 50 216 288 254 150 143 175 182 187 189 187 184 180 176 171 164 159 153 149 151 140 138 140 127 109 85 69 66 38 17 9 4 358 351 346 343 342 339 338 335 333 329 329 327
172 157 89 14 175 246 242 254 235 211 204 181 180 190 194 189 189 190 188 186 179 178 176 181 181 180 171 172 162 157 143 40 20 14 356 348 342 339 333 329 326 325 326 327 328 327 326 324 324
155 172 62 125 146 182 251 251 215 215 180 189 198 194 196 194 194 195 196 196 195 196 197 199 199 200 200 194 199 207 242 308 333 336 336 333 331 329 325 325 326 325 326 325 325 325 325 325 323
179 185 167 170 207 242 163 253 106 263 207 183 192 197 197 199 200 203 205 206 209 213 214 211 208 206 208 214 217 227 255 291 313 325 329 328 325 323 322 320 320 323 324 326 327 327 326 325 322
Wind_Speed_850mb
5 2 2 4 7 8 2 1 3 2 1 1 4 4 6 5 6 4 9 4 5 13 33 35 30 31 32 30 27 26 23 17 12 7 3 3 4 4 0 6 8 12 14 10 9 9 9 8 7
5 4 5 6 9 7 5 5 4 3 2 6 6 4 3 0 4 4 7 3 7 12 27 33 29 26 28 27 25 25 23 18 14 9 6 4 4 6 7 9 11 11 13 12 10 9 9 7 5
5 6 3 8 6 7 6 5 4 3 2 4 3 3 3 4 8 6 9 6 8 8 18 28 29 27 27 26 24 21 19 17 13 9 7 8 10 13 10 9 10 13 13 13 11 10 9 9 7
6 3 11 8 6 3 1 4 5 5 3 4 4 5 3 4 4 7 11 11 9 7 11 21 28 28 27 24 24 22 21 18 14 11 10 12 3 4 8 12 16 19 17 13 11 11 11 11 9
6 6 8 7 2 3 6 6 2 1 2 1 3 2 5 10 6 7 10 11 10 4 7 14 24 27 26 26 25 23 23 21 17 14 12 11 12 14 10 12 16 21 24 14 8 9 10 11 9
6 6 8 5 5 5 7 6 1 2 2 3 4 3 8 10 11 7 3 3 6 3 3 6 16 25 27 25 27 25 24 22 19 17 14 13 13 9 7 11 17 21 12 5 5 9 11 10 8
10 7 8 8 4 4 5 4 6 2 5 6 3 4 9 12 9 4 6 4 2 2 3 5 9 18 28 27 28 26 24 24 22 19 18 19 22 17 9 14 14 15 16 9 8 11 11 10 6
6 10 7 4 6 5 3 4 6 5 1 4 5 4 2 21 11 3 9 8 5 4 4 6 10 15 23 29 31 30 28 25 25 22 22 25 23 24 20 21 17 12 13 10 9 10 10 9 5
5 8 3 7 12 3 4 7 1 7 4 4 6 5 11 22 18 10 12 12 11 13 13 14 16 19 21 26 30 32 31 30 29 28 29 31 29 27 25 27 23 16 10 13 14 13 11 10 8
8 7 13 8 8 6 2 2 11 2 10 3 2 3 13 15 14 12 13 14 15 18 22 24 25 26 25 24 27 31 32 33 33 31 33 34 30 27 23 19 21 20 14 15 15 14 12 12 12
5 8 8 6 12 5 5 4 5 4 4 6 12 15 8 13 8 3 2 6 8 11 20 30 32 32 30 27 23 25 29 29 30 31 31 31 31 25 24 25 24 25 25 24 22 18 16 14 14
2 7 8 4 6 4 4 2 5 11 3 9 10 3 5 8 10 10 8 7 8 13 15 17 24 33 34 31 25 21 20 22 26 26 27 28 32 28 25 25 27 28 27 29 28 28 23 19 18
4 4 7 10 15 19 14 12 8 8 5 11 10 6 6 12 13 12 11 13 17 19 19 22 23 29 34 34 27 19 14 11 16 21 27 30 30 30 31 29 27 29 27 27 26 29 34 25 23
2 7 17 16 19 15 8 3 5 12 13 11 7 10 9 7 8 10 10 14 19 21 21 17 17 23 31 32 26 18 13 6 3 9 21 30 31 29 30 31 33 27 29 28 28 33 34 31 26
1 7 12 8 9 10 11 5 8 12 10 10 10 10 11 14 14 15 17 19 18 19 19 15 10 4 22 28 24 21 17 14 10 7 8 12 15 18 22 22 23 25 28 29 31 30 34 34 39
4 8 6 3 3 3 7 6 6 3 7 8 8 8 10 11 14 14 14 16 18 19 20 21 16 9 20 30 32 25 17 12 7 8 10 14 19 22 24 24 25 27 24 14 18 29 33 30 34
10 6 8 15 3 2 3 9 9 12 12 16 12 12 11 11 11 13 15 18 22 25 26 26 25 24 23 26 27 22 16 11 7 4 2 11 13 13 5 8 6 13 17 22 27 26 28 28 34
13 9 8 10 2 5 4 15 10 17 16 19 16 17 17 18 23 24 23 24 25 28 30 31 35 37 38 33 28 21 12 8 6 2 7 10 10 11 10 10 11 14 18 17 18 20 23 32 38
11 8 9 5 5 2 12 12 4 10 16 18 16 19 25 32 34 35 37 36 34 32 34 35 33 36 31 29 25 20 11 7 8 2 4 9 9 15 19 21 23 24 24 24 25 25 28 32 38
8 8 11 8 5 9 6 16 2 5 5 10 21 24 30 38 41 46 49 52 54 54 54 49 45 38 33 28 28 24 20 18 14 11 2 4 9 13 18 23 26 27 25 28 32 36 35 35 37
10 13 10 14 0 4 3 12 7 4 11 16 20 25 31 39 45 49 53 56 57 58 58 55 53 50 47 43 40 35 31 31 23 21 17 15 13 10 8 7 8 10 13 17 20 23 25 26 26
12 16 13 10 8 8 2 9 8 9 9 13 23 27 31 35 41 46 51 53 53 52 45 42 41 41 40 36 33 31 29 27 27 25 23 21 19 18 17 17 15 14 13 11 13 13 14 17 22
13 13 14 7 7 2 4 1 11 7 14 15 32 37 36 35 38 42 46 47 45 41 36 34 32 33 33 28 25 21 24 28 27 25 19 19 20 21 22 21 21 22 23 22 21 21 22 23 22
19 14 12 9 6 3 13 12 7 11 10 15 29 44 43 41 39 40 41 41 38 34 30 26 24 27 26 22 22 20 22 25 21 20 16 17 17 17 17 19 19 20 20 22 25 26 27 28 26
2 13 3 3 1 11 1 5 14 9 11 24 44 61 53 45 43 39 35 34 31 28 24 21 18 21 21 18 19 20 19 18 15 14 14 13 14 15 17 18 19 21 24 25 26 27 28 30 32
14 14 10 15 9 6 1 12 11 6 6 10 53 66 58 53 49 42 35 30 26 23 21 18 16 16 17 15 16 16 15 12 11 11 11 14 16 19 20 21 23 23 23 24 27 30 33 36 38
12 10 6 14 5 3 8 9 5 5 3 11 43 64 66 61 56 46 38 32 26 22 18 14 12 11 12 12 12 10 7 6 5 7 11 15 17 18 20 23 25 26 27 30 33 37 40 42 46
9 14 7 4 5 10 6 7 10 11 16 12 26 59 72 65 60 51 41 33 28 23 20 17 15 13 13 11 8 6 3 4 8 12 14 18 21 23 24 26 28 31 36 40 44 47 50 53 55
6 7 7 9 8 10 3 9 10 13 20 29 40 63 73 68 65 57 46 35 29 26 23 21 21 20 19 14 11 6 3 4 7 12 17 21 24 26 28 31 34 38 43 47 51 56 60 64 66
4 15 15 11 11 6 5 11 3 10 19 39 49 70 71 69 66 59 48 40 34 31 30 29 28 26 23 21 15 10 7 9 13 17 22 27 30 33 35 37 41 45 49 54 60 64 68 72 74
Wind_Direction_850mb
349 21 87 105 65 66 33 196 270 254 298 109 122 128 144 141 155 163 4 99 49 165 185 187 182 176 174 177 181 182 185 194 201 205 192 152 145 156 320 313 334 354 356 19 22 31 37 39 47
51 72 85 97 83 71 282 265 215 226 97 115 122 95 97 178 47 45 37 67 56 145 179 189 192 181 180 185 186 190 198 205 208 217 222 204 198 222 271 296 319 344 357 358 355 360 1 4 10
57 43 59 87 103 148 178 239 258 312 100 119 121 89 94 34 44 60 29 68 55 126 167 190 195 194 190 193 197 204 209 212 217 228 230 250 254 257 274 294 317 331 337 340 336 331 333 331 329
21 58 63 77 114 198 136 297 244 342 70 55 87 78 53 42 48 50 56 69 65 117 157 188 197 202 201 197 201 202 209 218 229 246 248 264 259 231 277 309 323 324 322 323 315 316 325 323 317
28 61 59 79 291 247 255 283 320 56 52 77 59 0 66 42 64 70 59 57 45 86 161 188 201 207 211 199 199 209 215 218 224 231 243 240 255 245 271 299 314 321 314 311 299 313 320 318 319
72 70 69 164 242 283 270 331 210 72 76 117 98 85 76 51 71 59 39 48 38 85 171 198 206 213 219 213 208 209 220 227 231 236 235 234 252 257 249 303 321 327 341 351 325 324 326 328 333
103 80 169 167 209 279 203 2 129 107 335 57 62 76 130 47 18 292 281 238 196 124 146 202 222 224 225 223 218 221 224 233 237 240 234 239 266 301 317 317 316 334 354 352 344 333 335 333 331
88 92 119 223 192 213 23 99 112 66 102 19 24 52 336 330 341 243 223 238 237 198 200 229 232 229 228 230 224 226 229 233 242 241 231 232 258 283 294 303 298 309 343 355 350 342 338 325 308
83 63 164 201 165 182 37 44 316 325 293 34 57 48 307 290 278 248 216 214 226 223 222 223 235 241 239 232 234 233 230 234 239 239 236 243 257 268 281 288 279 275 311 337 347 339 331 308 279
82 108 213 198 196 153 101 100 311 357 336 35 9 299 312 279 269 242 221 234 240 232 235 241 241 235 239 242 237 232 231 238 241 240 239 247 255 263 273 280 290 282 307 315 323 336 321 304 286
133 177 198 236 217 221 163 284 197 326 78 124 312 320 45 59 72 88 273 284 277 259 247 247 245 237 230 237 241 241 234 242 242 246 247 253 258 265 265 271 284 298 307 312 310 313 318 304 285
125 223 205 254 210 204 228 209 264 234 146 288 274 150 56 48 45 40 18 346 326 309 293 272 248 235 229 224 231 236 240 233 237 247 249 255 262 266 274 281 286 289 300 303 313 314 299 302 295
163 275 229 261 266 276 264 249 249 321 226 141 124 126 41 18 13 7 358 341 329 320 303 287 264 238 224 219 217 225 231 240 238 244 241 246 258 266 280 279 286 288 301 305 308 314 323 299 297
215 281 286 285 267 260 221 134 164 92 130 117 94 55 37 14 9 358 341 339 332 330 325 312 283 250 223 211 204 210 213 226 261 243 241 241 244 252 269 280 285 285 290 303 299 304 315 312 301
131 319 319 264 271 223 168 110 89 128 145 87 54 41 26 14 7 1 358 356 3 2 4 3 352 250 201 192 180 191 199 207 188 191 207 215 231 244 256 269 275 280 275 285 289 298 309 303 309
59 52 356 282 169 316 171 222 176 68 221 91 67 46 25 13 6 5 21 36 37 36 36 41 48 92 163 175 175 179 187 191 198 246 246 249 244 248 250 246 253 258 258 277 286 295 294 290 299
6 232 210 317 34 129 148 250 95 73 123 94 77 65 59 59 53 60 66 61 56 52 56 62 76 93 120 142 148 155 162 174 174 199 258 281 289 280 283 228 251 273 296 282 282 278 282 298 293
194 210 234 236 266 131 196 264 114 66 83 86 91 95 92 83 75 77 81 82 80 77 78 79 86 95 107 116 124 135 163 161 116 309 323 322 312 325 341 343 342 309 306 307 309 302 296 296 294
137 171 214 232 247 186 234 252 31 71 83 109 116 116 107 97 93 96 96 95 96 97 94 92 92 93 101 111 120 129 146 139 239 290 323 305 330 312 319 317 320 315 308 308 310 314 318 313 312
152 163 233 274 226 177 259 255 116 76 139 161 150 135 119 111 107 103 101 101 99 97 97 97 95 96 96 99 103 107 117 109 101 92 69 326 307 307 306 305 300 300 306 301 300 297 301 306 316
202 192 200 215 47 211 303 274 205 67 124 148 154 144 134 128 121 114 108 101 98 93 90 88 87 87 86 86 86 86 89 89 90 86 81 77 66 57 41 21 355 333 313 307 311 315 313 312 317
207 201 177 164 123 232 99 274 252 177 167 187 175 164 152 143 132 123 117 112 105 97 91 89 87 86 86 87 90 95 98 96 95 93 88 89 85 79 71 64 61 54 42 23 13 4 355 347 340
228 131 150 132 142 79 241 259 260 133 217 197 198 180 170 157 146 135 124 115 109 105 103 97 95 98 104 110 104 98 98 95 97 90 80 67 58 49 45 42 38 32 31 36 36 30 23 14 6
151 84 56 58 88 262 220 190 251 200 208 181 195 187 178 170 160 147 134 127 121 110 105 105 106 106 107 105 101 90 87 91 93 84 66 59 48 41 33 27 24 23 18 14 13 13 8 9 8
173 112 94 8 304 232 326 165 248 192 178 181 183 189 184 178 171 160 148 140 129 122 120 118 115 113 112 106 101 100 97 98 84 72 57 54 40 30 24 19 13 11 11 6 3 359 358 356 351
189 170 164 195 201 226 41 223 255 132 175 201 191 185 182 183 179 171 163 157 145 139 138 136 133 125 120 121 116 109 100 83 59 49 34 21 15 12 10 3 0 357 353 350 347 346 345 342 338
187 198 153 103 53 50 216 288 254 150 143 175 182 187 189 187 184 180 176 171 164 159 153 149 151 140 138 140 127 109 85 69 66 38 17 9 4 358 351 346 343 342 339 338 335 333 329 329 327
172 157 89 14 175 246 242 254 235 211 204 181 180 190 194 189 189 190 188 186 179 178 176 181 181 180 171 172 162 157 143 40 20 14 356 348 342 339 333 329 326 325 326 327 328 327 326 324 324
155 172 62 125 146 182 251 251 215 215 180 189 198 194 196 194 194 195 196 196 195 196 197 199 199 200 200 194 199 207 242 308 333 336 336 333 331 329 325 325 326 325 326 325 325 325 325 325 323
179 185 167 170 207 242 163 253 106 263 207 183 192 197 197 199 200 203 205 206 209 213 214 211 208 206 208 214 217 227 255 291 313 325 329 328 325 323 322 320 320 323 324 326 327 327 326 325 322